Showing default

HJS-9C, 68833

Orbit data source: Space-Track

HJS-9C, 68833 is a payload satellite owned by Zhongguo Xingwang (CN) in LEO that was launched on Fri, 24 Apr 2026 UTC via a CHANG ZHENG 2D launch vehicle from the Xichang Space Center, China (XSC). Payload-class satellites include a variety of spacecraft equipped with specific instruments for various scientific and technological missions. These include communications satellites like Starlink; space stations such as the ISS; scientific satellites like the Hubble; Earth observation satellites from companies like Planet Labs, Umbra, and HawkEye 360; GPS; miniature CubeSats for education and research; and military/defense satellites.

Loading next visibility...
Identifier
68833, 2026-091C
Orbit
LEO
Country
Flag of CNCN / PRC
Related business
Manufacturer
Unknown (CN)
Mission
Operational spacecraft
Bus & Motor
Unknown
Mass
~300 kg wet, ~300 kg dry
Launch date (UTC)
2026-04-24 (2 months ago)
Launch vehicle
CHANG ZHENG 2D
Launch site
Xichang Space Center, China (XSC)
Object type
Payload
Rocket body
Debris
Shape & HBR
Unknown shape, 14.5 m
Radar Cross Section
Large (>1 m²)

Expand to show TLE details & history
Last TLE update: 2 days ago

TLE from 2 days ago
0 HJS-9C
1 68833U 26091C   26170.11036764  .00002864  00000-0  14909-3 0  9996
2 68833  55.0010  13.3102 0013436  62.7829 297.4558 15.19216991  8497
Epoch: 2026-06-19T02:38Z
TLE epoch observation values (Epoch: 2026-06-19T02:38:55.764Z)
Latitude
Longitude
66.2338°
Altitude
505.04 km
Speed
7.615 km/s
True Right ascension
00h 53m 14s
True Declination
0° 00' 00"
Sunlit
Object was in daylight at epoch
Visualization orbit readout
Latitude
Unknown
Longitude
Unknown
Altitude
Unknown
Speed
Unknown
Apparent Right ascension
Unknown
Apparent Declination
Unknown
Sunlit
N/A
Visualization observer readout
Local Sidereal Time
07:21:12
Azimuth
Unknown
Elevation
Unknown
Doppler factor
Unknown
Orbital elements
Apogee altitude
517.421 km
Perigee altitude
498.916 km
Semi-major axis
6,886.305 km
Eccentricity
0.00134
Inclination
55.001°
RAAN
13.3102°
Arg. of periapsis
62.7829°
True anomaly
297.31907°
Mean anomaly
297.4558°
Eccentric anomaly
297.38745°
Mean motion
3.79808 °/min
Orbital period
94.78 mins
BSTAR
0.00014909
Loading maneuver chart data...
Computing Atmospheric mass density...
Loading historical data...
Loading historical data...
Loading historical data...
Loading historical data...
Loading historical data...
Loading historical data...
Loading historical data...
Other satellites on launch #91 in the year 2026 (2026-04-24 UTC)

Documentation

Showing up to 5 results
|